Weather Roundup
Issued by NWS

Home | Current Version | Previous Version | Graphics & Text | Print | Product List | Glossary Off
Versions: 1 2 3 4 5 6 7 8 9 10 11 12 13 14 15 16 17 18 19 20 21 22 23 24 25 26 27 28 29 30 31 32 33 34 35 36 37 38 39 40 41 42 43 44 45 46 47 48 49 50

000
NZUS93 KARX 161410
HRRWXR

CURRENT HOURLY OBSERVATIONS ACROSS
MUCH OF THE UPPER MISSISSIPPI VALLEY
NATIONAL WEATHER SERVICE LA CROSSE WI
800 AM CST TUE JAN 16 2018


...SOUTHEAST MINNESOTA...


CITY           SKY/WX    TMP DP  RH WIND       PRES   REMARKS
ROCHESTER      CLOUDY     1  -1  91 NW17      30.58R WCI -19
ROCHESTER/MAYO CLOUDY     2  -1  85 W13G18    30.60R WCI -15
WINONA         FAIR       3   0  85 NW6         N/A  WCI  -8
AUSTIN         CLOUDY    -2  -8  78 NW13      30.61R FOG     WCI -21
ALBERT LEA     CLOUDY    -4  -9  77 NW9       30.63R HAZE    WCI -20
DODGE CENTER   LGT SNOW   0  -4  85 NW15      30.59R WCI -20
PRESTON        LGT SNOW   0  -4  85 NW13      30.57R WCI -18
OWATONNA       CLOUDY    -2  -8  78 NW14      30.64S WCI -21
FARIBAULT      CLOUDY     0  -4  85 NW7       30.65S WCI -13
$$

...ELSEWHERE IN MINNESOTA...


CITY           SKY/WX    TMP DP  RH WIND       PRES   REMARKS
MINNEAPOLIS    FLURRIES   0  -3  87 NW12      30.68S WCI -17
INTNL FALLS    FAIR     -10 -15  78 W3        30.64F
DULUTH         FAIR      -5  -8  87 N14       30.56F WCI -25
RED WING       LGT SNOW   3  -2  78 NW7       30.65R WCI  -9
REDWOOD FALLS  CLOUDY    -9 -13  83 NW12      30.74S WCI -28
MANKATO        CLOUDY    -6 -11  79 NW15      30.69S WCI -27
WORTHINGTON    CLOUDY   -10 -14  82 NW9       30.67S WCI -27
FAIRMONT       CLOUDY    -6 -11  79 NW16      30.69R HAZE    WCI -28
$$

...SOUTHWEST WISCONSIN...


CITY           SKY/WX    TMP DP  RH WIND       PRES   REMARKS
LA CROSSE      FAIR       3  -2  79 N9        30.59R WCI -12
PRAIRIE DU CHI FLURRIES   7   1  76 W5        30.58R WCI  -2
BOSCOBEL       CLOUDY     1  -2  87 CALM      30.57R
LONE ROCK      MOCLDY     2   0  91 W7        30.54R FOG     WCI -11
PLATTEVILLE    MOCLDY     5   3  91 NW9       30.51R WCI  -9
FORT MC COY    LGT SNOW  -3  -5  90 CALM      30.56R
CAMP DOUGLAS   PTCLDY     3   0  85 W7        30.51F WCI  -9
MAUSTON-NEW LI FLURRIES   6   3  88 W6        30.51S WCI  -5
VIROQUA        FAIR       5   4  94 NW8       30.49S WCI  -8
WIS DELLS      CLOUDY    10   6  87 NW6       30.49R WCI   0
$$

...ELSEWHERE IN WISCONSIN...


CITY           SKY/WX    TMP DP  RH WIND       PRES   REMARKS
MILWAUKEE      LGT SNOW  19  15  84 NW12      30.41R VSB 1   WCI   7
MADISON        MOCLDY    10   7  87 NW6       30.48R WCI   0
GREEN BAY      CLOUDY     9   5  84 CALM      30.48R
EAU CLAIRE     CLOUDY     0  -2  91 CALM      30.57R
BLACK RVR FLS  FAIR      -2  -5  84 W3        30.55R
MEDFORD        MOCLDY     7   5  89 NW5       30.47R WCI  -1
WAUSAU         FAIR       5   3  91 NW8       30.46R WCI  -8
WIS RAPIDS     FAIR       4   0  83 N5        30.50R WCI  -5
MARSHFIELD     MOCLDY     8   4  83 N10       30.46R WCI  -6
RICE LAKE      CLOUDY     4   1  86 CALM      30.60S
$$

...NORTHEAST IOWA...


CITY           SKY/WX    TMP DP  RH WIND       PRES   REMARKS
WATERLOO       CLOUDY     1  -6  72 NW14      30.61R WCI -17
DUBUQUE        FAIR       5   0  79 N10       30.51R WCI -10
DECORAH        FLURRIES   7   3  85 NW10      30.54R WCI  -8
MASON CITY     CLOUDY    -3  -8  79 NW18      30.63R HAZE    WCI -25
CHARLES CITY   CLOUDY     0  -4  85 NW14      30.60S WCI -19
OELWEIN        FLURRIES   5   3  92 NW14      30.57R WCI -12
$$

...ELSEWHERE IN IOWA...


CITY           SKY/WX    TMP DP  RH WIND       PRES   REMARKS
DES MOINES     FLURRIES  -2  -9  72 NW16G23   30.67R WCI -23
IOWA CITY      CLOUDY     4  -3  73 NW10      30.62R WCI -11
FORT DODGE     FLURRIES  -4  -9  79 NW8       30.67S WCI -19
MARSHALLTOWN   CLOUDY    -1  -6  79 NW18      30.63R WCI -22
CEDAR RAPIDS   CLOUDY     4  -2  76 NW14      30.57R WCI -14
$$

...NORTHERN ILLINOIS...


CITY           SKY/WX    TMP DP  RH WIND       PRES   REMARKS
CHICAGO-OHARE  FLURRIES  16  11  80 NW13      30.41R WCI   2
CHICAGO-MIDWAY LGT SNOW  12   8  84 W7        30.42R FOG     WCI   1
MOLINE         FLURRIES   4  -1  80 W9        30.57R WCI -10
ROCKFORD       LGT SNOW  12   7  80 NW13      30.48R WCI  -3
PEORIA         LGT SNOW   0  -6  76 W10       30.58R WCI -16
$$

NOTE: "FAIR" INDICATES FEW OR NO CLOUDS BELOW 12,000 FEET WITH NO
SIGNIFICANT WEATHER AND/OR OBSTRUCTIONS TO VISIBILITY. WIND
SPEEDS ARE IN MILES-PER-HOUR.




USA.gov is the U.S. government's official web portal to all federal, state and local government web resources and services.